Location: Étang Rond
(42.7927°N, 1.0661°E)
Time: 21:39:36
(UTC+00:00)

Cosmos 1420 Rocket - Pass Details

Date: 08 November 2025
Orbit: 750 x 776 km, 74.0° (Epoch: 13 December)

Event Time Altitude Azimuth Distance (km) Brightness Sun altitude
Rises 05:36:01 0° 201° (SSW) 3,217 7.1 -11.8°
Reaches altitude 10° 05:38:22 10° 202° (SSW) 2,299 6.4 -11.4°
Maximum altitude 05:43:36 81° 290° (WNW) 786 4.0 -10.5°
Drops below altitude 10° 05:48:54 10° 18° (NNE) 2,330 6.6 -9.5°
Sets 05:51:19 0° 20° (NNE) 3,263 7.3 -9.1°
